Location: Elstree
(51.6403°N, 0.2969°W)
Time: 01:39:03
(UTC+00:00)

CSL-04 DEB - Pass Details

Date: 03 March 2021
Orbit: 545 x 627 km, 98.8° (Epoch: 11 April)

Event Time Altitude Azimuth Distance (km) Brightness Sun altitude
Rises 18:11:45 0° 18° (NNE) 2,731 7.6 -4.9°
Reaches altitude 10° 18:13:53 10° 22° (NNE) 1,836 6.7 -5.2°
Maximum altitude 18:17:49 62° 103° (ESE) 631 4.4 -5.9°
Drops below altitude 10° 18:21:46 10° 185° (S) 1,850 7.1 -6.5°
Sets 18:23:56 0° 189° (S) 2,753 8.0 -6.8°
